The Dalles, WA

7:22 PM PDT on April 28, 2017 (GMT -0700)
Columbia Gorge Regional-The Dalles

Weather History for KDLS - June, 2013

Change the Weather History Date:

Thursday, June 13, 2013

  Actual Average Record
Temperature  
Mean Temperature 62 °F -  
Max Temperature 71 °F 78 °F 100 °F (1986)
Min Temperature 53 °F 54 °F 43 °F (1981)
Degree Days  
Heating Degree Days 3    
Growing Degree Days 12 (Base 50)    
Moisture  
Dew Point 44 °F    
Average Humidity 58    
Maximum Humidity 80    
Minimum Humidity 35    
Precipitation  
Precipitation 0.01 in - - ()
Sea Level Pressure  
Sea Level Pressure 30.15 in    
Wind  
Wind Speed 12 mph (WNW)    
Max Wind Speed 28 mph    
Max Gust Speed 37 mph    
Visibility 10 miles    
Events Rain    
Averages and records for this station are not official NWS values.
T = Trace of Precipitation, MM = Missing Value Source: NWS Daily Summary

Daily Weather History Graph

Daily Weather History Graph

Search for Another Location

Airport or City:

Trip Planner

Search our weather history database for the weather conditions in past years. The results will help you decide how hot, cold, wet, or windy it might be!

Date:

Astronomy

Jun. 13, 2013 Rise Set
Actual Time 5:14 AM PDT 8:54 PM PDT
Civil Twilight 4:36 AM PDT 9:32 PM PDT
Nautical Twilight 3:46 AM PDT 10:23 PM PDT
Astronomical Twilight 2:37 AM PDT 11:32 PM PDT
Moon 10:08 AM PDT (6/13) 11:50 PM PDT (6/13)
Length of Visible Light 16h 56m
Length of Day
15h 40m
Waxing Crescent, 22% of the Moon is Illuminated
Jun 13
Waxing Crescent
Jun 16
First Quarter
Jun 23
Full
Jun 29
Last Quarter
Jul 8
New

Hourly Weather History & Observations

Time (PDT) Temp. Dew Point Humidity Pressure Visibility Wind Dir Wind Speed Gust Speed Precip Events Conditions
12:53 AM 55.9 °F 43.0 °F 62% 30.12 in 10.0 mi WNW 11.5 mph - N/A   Clear
1:53 AM 54.0 °F 43.0 °F 66% 30.12 in 10.0 mi West 9.2 mph - N/A   Clear
2:53 AM 53.1 °F 44.1 °F 71% 30.12 in 10.0 mi West 8.1 mph - N/A   Clear
3:53 AM 53.1 °F 44.1 °F 71% 30.12 in 10.0 mi West 6.9 mph - N/A   Partly Cloudy
4:53 AM 54.0 °F 44.1 °F 69% 30.12 in 10.0 mi West 10.4 mph - N/A   Clear
5:53 AM 54.0 °F 45.0 °F 72% 30.13 in 10.0 mi West 8.1 mph - N/A   Partly Cloudy
6:53 AM 55.9 °F 46.9 °F 72% 30.14 in 10.0 mi WNW 12.7 mph - 0.00 in Rain Light Rain
7:53 AM 54.0 °F 46.0 °F 75% 30.15 in 10.0 mi West 11.5 mph - 0.00 in Rain Light Rain
8:53 AM 54.0 °F 48.0 °F 80% 30.16 in 10.0 mi NNW 12.7 mph - 0.01 in   Overcast
9:53 AM 55.9 °F 46.9 °F 72% 30.16 in 10.0 mi NW 11.5 mph - N/A   Overcast
10:53 AM 62.1 °F 48.0 °F 60% 30.14 in 10.0 mi NW 15.0 mph - N/A   Overcast
11:53 AM 64.9 °F 46.0 °F 50% 30.13 in 10.0 mi NW 20.7 mph 26.5 mph N/A   Clear
12:53 PM 69.1 °F 44.1 °F 40% 30.13 in 10.0 mi NW 23.0 mph 26.5 mph N/A   Clear
1:53 PM 69.1 °F 43.0 °F 39% 30.12 in 10.0 mi NW 21.9 mph 28.8 mph N/A   Clear
2:53 PM 71.1 °F 42.1 °F 35% 30.12 in 10.0 mi NW 19.6 mph 31.1 mph N/A   Clear
3:53 PM 69.1 °F 41.0 °F 36% 30.13 in 10.0 mi WNW 23.0 mph 34.5 mph N/A   Clear
4:53 PM 68.0 °F 42.1 °F 39% 30.14 in 10.0 mi WNW 27.6 mph 36.8 mph N/A   Clear
5:53 PM 66.9 °F 43.0 °F 42% 30.15 in 10.0 mi West 15.0 mph 28.8 mph N/A   Scattered Clouds
6:53 PM 64.9 °F 43.0 °F 45% 30.16 in 10.0 mi West 16.1 mph 25.3 mph N/A   Partly Cloudy
7:53 PM 63.0 °F 43.0 °F 48% 30.17 in 10.0 mi West 13.8 mph 25.3 mph N/A   Clear
8:53 PM 61.0 °F 43.0 °F 52% 30.18 in 10.0 mi West 11.5 mph - N/A   Clear
9:53 PM 57.9 °F 44.1 °F 60% 30.19 in 10.0 mi North 3.5 mph - N/A   Clear
10:53 PM 57.0 °F 45.0 °F 64% 30.21 in 10.0 mi WNW 6.9 mph - N/A   Clear
11:53 PM 57.9 °F 45.0 °F 62% 30.21 in 10.0 mi West 4.6 mph - N/A   Mostly Cloudy